When you browse on this site, cookies collect data to enhance your experience and personalize the content and advertising you see.
Visit our Privacy Policy to learn more. By continuing to use the site, you agree to this use of cookies and data.
  • In Romania
  • List of Countries
  • For 7 days
  • Water Temperature
  • Satellite Maps
  • Weather Map
  • Weather Widgets
  • user-avatar
    Login

    Hourly Weather Satif

    Today, 17 June, Monday

    Time Temperature Precipitation Wind Pressure Humidity
    00:00 +20°C° 0 mm 3 mps 672 mmHg 74%
    01:00 +20°C° 0.1 mm 3 mps 672 mmHg 77%
    02:00 +19°C° 0.1 mm 2 mps 672 mmHg 80%
    03:00 +19°C° 0.1 mm 2 mps 671 mmHg 83%
    04:00 +18°C° 0.5 mm 2 mps 672 mmHg 83%
    05:00 +18°C° 0.5 mm 2 mps 672 mmHg 83%
    06:00 +20°C° 0 mm 1 mps 673 mmHg 82%
    07:00 +21°C° 0 mm 1 mps 673 mmHg 73%
    08:00 +21°C° 0 mm 2 mps 673 mmHg 64%
    09:00 +24°C° 0 mm 2 mps 673 mmHg 55%
    10:00 +25°C° 0.1 mm 3 mps 674 mmHg 48%
    11:00 +27°C° 0.1 mm 4 mps 674 mmHg 41%
    12:00 +28°C° 0.1 mm 5 mps 674 mmHg 34%
    13:00 +28°C° 0 mm 5 mps 674 mmHg 36%
    14:00 +27°C° 0 mm 5 mps 673 mmHg 39%
    15:00 +27°C° 0 mm 6 mps 673 mmHg 42%
    16:00 +26°C° 0 mm 5 mps 673 mmHg 44%
    17:00 +25°C° 0 mm 5 mps 673 mmHg 46%
    18:00 +23°C° 0 mm 4 mps 673 mmHg 48%
    19:00 +22°C° 0 mm 4 mps 673 mmHg 51%
    20:00 +21°C° 0 mm 3 mps 673 mmHg 54%
    21:00 +20°C° 0 mm 2 mps 673 mmHg 58%
    22:00 +20°C° 0 mm 2 mps 673 mmHg 58%
    23:00 +21°C° 0 mm 1 mps 673 mmHg 59%

    Tomorrow, 18 June, Tuesday

    Time Temperature Precipitation Wind Pressure Humidity
    00:00 +20°C° 0 mm 1 mps 673 mmHg 59%
    01:00 +20°C° 0 mm 1 mps 672 mmHg 59%
    02:00 +20°C° 0 mm 1 mps 672 mmHg 59%
    03:00 +19°C° 0 mm 1 mps 672 mmHg 59%
    04:00 +20°C° 0 mm 1 mps 672 mmHg 56%
    05:00 +19°C° 0 mm 0 mps 673 mmHg 53%
    06:00 +20°C° 0 mm 0 mps 673 mmHg 50%
    07:00 +24°C° 0 mm 1 mps 674 mmHg 44%
    08:00 +26°C° 0 mm 2 mps 674 mmHg 39%
    09:00 +28°C° 0 mm 2 mps 675 mmHg 34%
    10:00 +29°C° 0 mm 3 mps 675 mmHg 31%
    11:00 +30°C° 0 mm 4 mps 675 mmHg 28%
    12:00 +32°C° 0 mm 4 mps 675 mmHg 25%
    13:00 +33°C° 0 mm 4 mps 675 mmHg 24%
    14:00 +33°C° 0 mm 4 mps 675 mmHg 23%
    15:00 +33°C° 0 mm 4 mps 674 mmHg 23%
    16:00 +32°C° 0 mm 4 mps 674 mmHg 26%
    17:00 +30°C° 0 mm 3 mps 674 mmHg 29%
    18:00 +29°C° 0 mm 3 mps 674 mmHg 32%
    19:00 +28°C° 0 mm 2 mps 674 mmHg 37%
    20:00 +26°C° 0 mm 2 mps 674 mmHg 42%
    21:00 +25°C° 0 mm 2 mps 673 mmHg 47%
    22:00 +24°C° 0 mm 2 mps 673 mmHg 48%
    23:00 +24°C° 0 mm 1 mps 673 mmHg 48%

    Day after tomorrow, 19 June, Wednesday

    Time Temperature Precipitation Wind Pressure Humidity
    00:00 +24°C° 0 mm 1 mps 673 mmHg 49%
    01:00 +23°C° 0 mm 1 mps 673 mmHg 49%
    02:00 +23°C° 0 mm 1 mps 672 mmHg 50%
    03:00 +23°C° 0 mm 1 mps 672 mmHg 50%
    04:00 +24°C° 0 mm 2 mps 672 mmHg 45%
    05:00 +25°C° 0 mm 2 mps 673 mmHg 40%
    06:00 +25°C° 0 mm 3 mps 673 mmHg 35%
    07:00 +27°C° 0 mm 3 mps 674 mmHg 31%
    08:00 +29°C° 0 mm 4 mps 675 mmHg 27%
    09:00 +32°C° 0 mm 5 mps 675 mmHg 23%
    10:00 +33°C° 0 mm 5 mps 675 mmHg 21%
    11:00 +34°C° 0 mm 6 mps 676 mmHg 20%
    12:00 +35°C° 0 mm 6 mps 676 mmHg 19%
    13:00 +35°C° 0 mm 6 mps 675 mmHg 18%
    14:00 +36°C° 0 mm 6 mps 675 mmHg 18%
    15:00 +36°C° 0 mm 6 mps 675 mmHg 18%
    16:00 +35°C° 0 mm 5 mps 674 mmHg 20%
    17:00 +35°C° 0 mm 4 mps 674 mmHg 22%
    18:00 +34°C° 0 mm 4 mps 674 mmHg 24%
    19:00 +32°C° 0.1 mm 4 mps 674 mmHg 26%
    20:00 +30°C° 0.1 mm 4 mps 674 mmHg 29%
    21:00 +29°C° 0.1 mm 4 mps 674 mmHg 32%
    22:00 +28°C° 0.3 mm 3 mps 673 mmHg 34%
    23:00 +27°C° 0.3 mm 3 mps 673 mmHg 35%

    20 June, Thursday

    Time Temperature Precipitation Wind Pressure Humidity
    00:00 +27°C° 0.3 mm 3 mps 673 mmHg 37%
    01:00 +26°C° 0.1 mm 3 mps 672 mmHg 37%
    02:00 +26°C° 0.1 mm 2 mps 672 mmHg 38%
    03:00 +26°C° 0.1 mm 2 mps 672 mmHg 38%
    04:00 +26°C° 0.1 mm 2 mps 672 mmHg 36%
    05:00 +27°C° 0.1 mm 2 mps 672 mmHg 34%
    06:00 +28°C° 0.1 mm 2 mps 673 mmHg 32%
    07:00 +30°C° 0 mm 4 mps 673 mmHg 27%
    08:00 +32°C° 0 mm 6 mps 674 mmHg 23%
    09:00 +34°C° 0 mm 8 mps 675 mmHg 18%
    10:00 +35°C° 0 mm 9 mps 675 mmHg 16%
    11:00 +37°C° 0 mm 9 mps 675 mmHg 15%
    12:00 +38°C° 0 mm 9 mps 675 mmHg 13%
    13:00 +38°C° 0 mm 9 mps 675 mmHg 13%
    14:00 +38°C° 0 mm 9 mps 674 mmHg 13%
    15:00 +38°C° 0 mm 9 mps 674 mmHg 14%
    16:00 +38°C° 0 mm 9 mps 674 mmHg 15%
    17:00 +37°C° 0 mm 8 mps 674 mmHg 17%
    18:00 +35°C° 0 mm 7 mps 674 mmHg 18%
    19:00 +33°C° 0 mm 6 mps 674 mmHg 20%
    20:00 +32°C° 0 mm 5 mps 673 mmHg 22%
    21:00 +29°C° 0 mm 4 mps 673 mmHg 24%
    22:00 +29°C° 0 mm 4 mps 673 mmHg 25%
    23:00 +28°C° 0 mm 4 mps 672 mmHg 27%

    21 June, Friday

    Time Temperature Precipitation Wind Pressure Humidity
    00:00 +27°C° 0 mm 4 mps 672 mmHg 28%
    01:00 +27°C° 0 mm 4 mps 672 mmHg 28%
    02:00 +27°C° 0 mm 4 mps 672 mmHg 27%
    03:00 +27°C° 0 mm 5 mps 672 mmHg 27%
    04:00 +28°C° 0 mm 4 mps 672 mmHg 28%
    05:00 +28°C° 0 mm 4 mps 673 mmHg 30%
    06:00 +28°C° 0 mm 4 mps 673 mmHg 31%
    07:00 +30°C° 0 mm 7 mps 674 mmHg 26%
    08:00 +33°C° 0 mm 10 mps 674 mmHg 22%
    09:00 +36°C° 0 mm 14 mps 675 mmHg 18%
    10:00 +37°C° 0 mm 13 mps 675 mmHg 17%
    11:00 +37°C° 0 mm 13 mps 675 mmHg 17%
    12:00 +38°C° 0 mm 13 mps 675 mmHg 16%
    13:00 +38°C° 0 mm 12 mps 674 mmHg 16%
    14:00 +38°C° 0 mm 11 mps 674 mmHg 15%
    15:00 +38°C° 0 mm 9 mps 673 mmHg 15%
    16:00 +38°C° 0 mm 9 mps 673 mmHg 16%
    17:00 +37°C° 0 mm 8 mps 673 mmHg 17%
    18:00 +36°C° 0 mm 7 mps 673 mmHg 18%
    19:00 +34°C° 0 mm 6 mps 673 mmHg 21%
    20:00 +32°C° 0 mm 5 mps 673 mmHg 24%
    21:00 +29°C° 0 mm 4 mps 673 mmHg 27%
    22:00 +27°C° 0 mm 3 mps 673 mmHg 33%
    23:00 +26°C° 0 mm 3 mps 672 mmHg 38%

    22 June, Saturday

    Time Temperature Precipitation Wind Pressure Humidity
    00:00 +24°C° 0 mm 2 mps 672 mmHg 44%
    01:00 +23°C° 0 mm 2 mps 672 mmHg 47%
    02:00 +21°C° 0 mm 2 mps 672 mmHg 50%
    03:00 +20°C° 0 mm 2 mps 672 mmHg 53%
    04:00 +22°C° 0 mm 1 mps 672 mmHg 49%
    05:00 +23°C° 0 mm 1 mps 673 mmHg 45%
    06:00 +22°C° 0 mm 0 mps 674 mmHg 41%
    07:00 +27°C° 0 mm 3 mps 674 mmHg 33%
    08:00 +30°C° 0 mm 5 mps 675 mmHg 25%
    09:00 +34°C° 0 mm 8 mps 676 mmHg 17%
    10:00 +35°C° 0 mm 9 mps 676 mmHg 16%
    11:00 +37°C° 0 mm 9 mps 676 mmHg 14%
    12:00 +38°C° 0 mm 9 mps 676 mmHg 13%
    13:00 +38°C° 0 mm 9 mps 675 mmHg 13%
    14:00 +38°C° 0 mm 9 mps 675 mmHg 13%
    15:00 +38°C° 0 mm 8 mps 675 mmHg 13%
    16:00 +38°C° 0 mm 7 mps 675 mmHg 14%
    17:00 +36°C° 0 mm 6 mps 674 mmHg 15%
    18:00 +36°C° 0 mm 5 mps 674 mmHg 16%
    19:00 +34°C° 0 mm 5 mps 674 mmHg 18%
    20:00 +33°C° 0 mm 5 mps 674 mmHg 19%
    21:00 +30°C° 0 mm 5 mps 674 mmHg 21%
    22:00 +30°C° 0 mm 6 mps 673 mmHg 20%
    23:00 +30°C° 0 mm 7 mps 673 mmHg 19%
    Show more